N0MR Weather Reports


time (UTC)temp
C
wind
direction
speed
KPH
gust
KPH
rain 1hr
cm
rain 24hr
cm
rain mn
cm
humidity
%
barometer
mb
20260906190920 25 221 0.0 1.6 0.00 0.00 0.00 72 1018.1
20260906185918 25 108 0.0 4.8 0.00 0.00 0.00 74 1018.2
20260906184919 25 108 0.0 4.8 0.00 0.00 0.00 74 1018.2
20260906183918 25 223 0.0 1.6 0.00 0.00 0.00 74 1018.4
20260906182920 25 223 0.0 1.6 0.00 0.00 0.00 74 1018.4
20260906181928 24 164 0.0 9.7 0.00 0.00 0.00 75 1018.8
20260906180918 24 164 0.0 9.7 0.00 0.00 0.00 75 1018.8
20260906175919 24 302 0.0 9.7 0.00 0.00 0.00 75 1018.9
20260906174921 24 302 0.0 9.7 0.00 0.00 0.00 75 1018.9
20260906173917 25 116 0.0 8.0 0.00 0.00 0.00 75 1019.0
20260906172928 25 116 0.0 8.0 0.00 0.00 0.00 75 1019.0
20260906171919 24 179 0.0 6.4 0.00 0.00 0.00 77 1019.3
20260906170921 23 93 0.0 3.2 0.00 0.00 0.00 79 1019.5
20260906165919 23 93 0.0 3.2 0.00 0.00 0.00 79 1019.5
20260906164918 22 40 0.0 6.4 0.00 0.00 0.00 85 1019.5
20260906163919 22 40 0.0 6.4 0.00 0.00 0.00 85 1019.5
20260906162919 21 210 0.0 9.7 0.00 0.00 0.00 85 1019.6
20260906161918 21 210 0.0 9.7 0.00 0.00 0.00 85 1019.6
20260906160919 21 243 0.0 3.2 0.00 0.00 0.00 84 1019.8
20260906155919 21 243 0.0 3.2 0.00 0.00 0.00 84 1019.8
20260906153919 21 224 1.6 6.4 0.00 0.00 0.00 83 1019.8
20260906152919 20 26 0.0 1.6 0.00 0.00 0.00 86 1019.5
20260906151919 20 26 0.0 1.6 0.00 0.00 0.00 86 1019.5
20260906145918 18 148 0.0 3.2 0.00 0.00 0.00 90 1019.5
20260906144929 17 164 0.0 0.0 0.00 0.00 0.00 93 1019.6
20260906143918 17 164 0.0 0.0 0.00 0.00 0.00 93 1019.6
20260906142919 16 162 0.0 0.0 0.00 0.00 0.00 97 1019.8
20260906140919 16 162 0.0 0.0 0.00 0.00 0.00 97 1020.1
20260906133921 15 162 0.0 0.0 0.00 0.00 0.00 98 1020.3
20260906132920 15 162 0.0 0.0 0.00 0.00 0.00 98 1020.3
20260906131919 14 162 0.0 0.0 0.00 0.00 0.00 98 1020.1
20260906125920 13 162 0.0 0.0 0.00 0.00 0.00 98 1019.9
20260906124919 13 162 0.0 0.0 0.00 0.00 0.00 98 1019.9
20260906123921 13 162 0.0 0.0 0.00 0.00 0.00 97 1019.8
20260906122920 13 162 0.0 0.0 0.00 0.00 0.00 97 1019.8
20260906121920 13 161 0.0 0.0 0.00 0.00 0.00 97 1019.7
20260906120919 13 161 0.0 0.0 0.00 0.00 0.00 97 1019.7
20260906115921 12 161 0.0 0.0 0.00 0.00 0.00 97 1019.4
20260906114920 12 161 0.0 0.0 0.00 0.00 0.00 97 1019.4
20260906113921 12 161 0.0 0.0 0.00 0.00 0.00 97 1019.3
20260906112923 12 161 0.0 0.0 0.00 0.00 0.00 97 1019.3
20260906111921 12 161 0.0 0.0 0.00 0.00 0.00 97 1019.0
20260906110920 12 161 0.0 0.0 0.00 0.00 0.00 97 1019.0
20260906105921 12 161 0.0 0.0 0.00 0.00 0.00 97 1018.9
20260906104921 12 161 0.0 0.0 0.00 0.00 0.00 97 1018.7
20260906103920 12 161 0.0 0.0 0.00 0.00 0.00 97 1018.7
20260906102920 12 161 0.0 0.0 0.00 0.00 0.00 97 1018.6
20260906101921 12 161 0.0 0.0 0.00 0.00 0.00 97 1018.6
20260906100921 12 161 0.0 0.0 0.00 0.00 0.00 97 1018.4
20260906095920 12 161 0.0 0.0 0.00 0.00 0.00 97 1018.4
20260906094925 12 161 0.0 0.0 0.00 0.00 0.00 97 1018.4
20260906093921 12 161 0.0 0.0 0.00 0.00 0.00 97 1018.4
20260906092930 12 161 0.0 0.0 0.00 0.00 0.00 97 1018.3
20260906091920 12 161 0.0 0.0 0.00 0.00 0.00 97 1018.3
20260906090920 12 161 0.0 0.0 0.00 0.00 0.00 97 1018.5
20260906085921 12 161 0.0 0.0 0.00 0.00 0.00 97 1018.5
20260906084921 12 161 0.0 0.0 0.00 0.00 0.00 96 1018.6
20260906083921 12 161 0.0 0.0 0.00 0.00 0.00 96 1018.6
20260906082931 12 161 0.0 0.0 0.00 0.00 0.00 97 1018.9
20260906081922 12 161 0.0 0.0 0.00 0.00 0.00 97 1018.9
20260906080921 12 161 0.0 0.0 0.00 0.00 0.00 96 1018.8
20260906075921 12 161 0.0 0.0 0.00 0.00 0.00 96 1018.8
20260906074921 12 161 0.0 0.0 0.00 0.00 0.00 96 1018.7
20260906073921 12 161 0.0 0.0 0.00 0.00 0.00 96 1018.9
20260906072922 12 161 0.0 0.0 0.00 0.00 0.00 96 1018.9
20260906071921 12 161 0.0 0.0 0.00 0.00 0.00 96 1018.9
20260906070921 12 161 0.0 0.0 0.00 0.00 0.00 96 1018.9
20260906065921 12 161 0.0 0.0 0.00 0.03 0.00 96 1018.9
20260906064932 12 161 0.0 0.0 0.00 0.03 0.00 96 1018.9
20260906063922 12 161 0.0 0.0 0.00 0.03 0.00 96 1018.8
20260906062925 12 161 0.0 0.0 0.00 0.03 0.00 96 1018.8
20260906061921 12 161 0.0 0.0 0.00 0.03 0.00 96 1018.8
20260906060922 12 161 0.0 0.0 0.00 0.03 0.00 96 1018.8
20260906055921 12 161 0.0 0.0 0.00 0.03 0.00 95 1019.1
20260906054922 12 161 0.0 0.0 0.00 0.03 0.00 95 1019.1
20260906053922 12 161 0.0 0.0 0.00 0.03 0.00 95 1018.9
20260906052925 12 161 0.0 0.0 0.00 0.03 0.00 95 1018.9
20260906051923 12 161 0.0 0.0 0.00 0.03 0.00 95 1019.0
20260906050923 12 161 0.0 0.0 0.00 0.03 0.00 95 1019.0
20260906045932 13 161 0.0 0.0 0.00 0.03 0.03 95 1019.1
20260906044922 13 161 0.0 0.0 0.00 0.03 0.03 95 1019.1
20260906043922 13 161 0.0 0.0 0.00 0.03 0.03 95 1018.8
20260906042926 13 161 0.0 0.0 0.00 0.03 0.03 95 1018.8
20260906041923 13 161 0.0 0.0 0.00 0.03 0.03 94 1018.7
20260906040922 13 161 0.0 0.0 0.00 0.03 0.03 94 1018.6
20260906035923 13 161 0.0 0.0 0.00 0.03 0.03 94 1018.6
20260906034922 14 161 0.0 0.0 0.00 0.03 0.03 95 1018.2
20260906033922 14 161 0.0 0.0 0.00 0.03 0.03 95 1018.2
20260906032932 14 161 0.0 0.0 0.00 0.03 0.03 95 1018.1
20260906031923 14 161 0.0 0.0 0.00 0.03 0.03 95 1018.1
20260906030923 15 161 0.0 0.0 0.00 0.03 0.03 95 1018.1
20260906025926 15 161 0.0 0.0 0.00 0.03 0.03 95 1018.1
20260906024923 15 159 0.0 0.0 0.00 0.03 0.03 95 1018.0
20260906023922 15 159 0.0 0.0 0.00 0.03 0.03 95 1018.0
20260906022923 15 160 0.0 0.0 0.00 0.03 0.03 94 1018.1
20260906021932 15 160 0.0 0.0 0.00 0.03 0.03 94 1018.1
20260906010928 16 159 0.0 0.0 0.00 0.03 0.03 93 1017.3
20260906005928 17 159 0.0 0.0 0.00 0.03 0.03 92 1017.4
20260906004928 17 159 0.0 0.0 0.00 0.03 0.03 92 1017.4
20260906003925 17 159 0.0 0.0 0.00 0.03 0.03 92 1017.1
20260906002927 17 159 0.0 0.0 0.00 0.03 0.03 92 1017.1
20260906001925 17 159 0.0 0.0 0.00 0.03 0.03 91 1017.2
20260906000934 17 159 0.0 0.0 0.00 0.03 0.03 91 1017.2
20260905235924 17 159 0.0 1.6 0.00 0.03 0.03 88 1017.3
20260905234924 17 159 0.0 1.6 0.00 0.03 0.03 88 1017.3
20260905233924 18 159 0.0 1.6 0.00 0.03 0.03 87 1017.3
20260905232925 18 159 0.0 1.6 0.00 0.03 0.03 87 1017.3
20260905231924 18 154 0.0 3.2 0.00 0.03 0.03 83 1017.7
20260905230924 18 154 0.0 3.2 0.00 0.03 0.03 83 1017.7
20260905225924 19 254 0.0 1.6 0.00 0.03 0.03 84 1017.5
20260905224928 19 254 0.0 1.6 0.00 0.03 0.03 84 1017.5
20260905223925 20 189 0.0 3.2 0.00 0.03 0.03 83 1017.5
20260905222924 20 189 0.0 3.2 0.00 0.03 0.03 83 1017.5
20260905221925 21 203 0.0 3.2 0.00 0.03 0.03 81 1017.7
20260905220927 21 203 0.0 3.2 0.00 0.03 0.03 81 1017.7
20260905215928 21 197 0.0 1.6 0.00 0.03 0.03 80 1017.9
20260905214925 22 182 0.0 3.2 0.00 0.03 0.03 75 1017.9
20260905212924 22 199 1.6 1.6 0.00 0.03 0.03 78 1017.8
20260905211925 22 199 1.6 1.6 0.00 0.03 0.03 78 1017.8
20260905210924 22 182 0.0 6.4 0.00 0.03 0.03 77 1018.1
20260905205928 22 182 0.0 6.4 0.00 0.03 0.03 77 1018.1
20260905202925 22 268 0.0 1.6 0.00 0.03 0.03 80 1018.1
20260905201926 22 268 0.0 1.6 0.00 0.03 0.03 80 1018.1
20260905200935 21 275 0.0 1.6 0.00 0.03 0.03 84 1018.2
20260905195926 21 275 0.0 1.6 0.00 0.03 0.03 84 1018.2
20260905194928 21 275 0.0 1.6 0.00 0.03 0.03 84 1018.5
20260905193926 21 275 0.0 1.6 0.00 0.03 0.03 84 1018.5
20260905192925 20 199 0.0 0.0 0.00 0.03 0.03 85 1018.6
20260905191935 20 199 0.0 0.0 0.00 0.03 0.03 85 1018.6